Lapse_Rate
5.5 5.3 5.3 5.4 5.5 5.9 5.9 5.8 6.0 6.0 6.1 6.2 6.1 6.2 6.0 6.0 6.3 6.2 5.8 5.7 5.5 5.5
5.9 5.7 5.4 5.4 5.3 5.5 5.9 5.9 5.8 5.9 6.1 6.2 6.1 6.1 6.2 6.2 6.2 5.9 5.8 5.7 5.3 5.4
6.5 6.4 6.0 5.8 5.5 5.5 5.6 5.8 5.8 5.9 6.2 6.2 6.1 6.1 6.1 6.1 5.9 6.0 5.6 5.8 5.6 5.4
6.4 6.2 6.2 6.3 6.5 6.0 5.9 5.8 5.9 6.0 6.1 6.0 5.9 6.0 6.1 6.0 5.9 5.9 5.7 6.0 5.3 5.3
6.5 6.4 6.2 6.1 6.6 6.3 6.1 6.1 5.8 5.9 6.0 5.9 5.9 5.9 5.7 5.8 6.1 5.5 5.7 5.7 5.0 4.8
6.4 6.4 6.4 6.3 6.3 6.3 6.1 6.1 6.1 5.9 5.8 6.0 5.9 5.9 6.0 5.8 5.7 5.3 5.6 5.6 5.0 5.0
6.8 6.5 6.4 6.2 6.1 6.1 6.0 6.1 6.2 6.2 5.9 6.3 6.1 6.1 6.0 5.9 5.6 5.2 5.4 5.4 4.9 4.9
7.3 6.8 6.5 6.2 6.3 6.0 6.1 6.5 6.6 6.3 6.1 6.2 6.0 6.1 5.8 5.5 5.4 4.9 5.3 5.4 4.9 4.8
7.1 6.8 6.5 6.3 6.2 6.2 6.1 6.1 6.1 5.9 6.1 6.1 6.1 5.8 5.4 5.6 5.2 4.8 5.0 4.9 4.7 5.0
7.0 6.8 6.6 6.7 6.8 6.6 5.9 6.0 6.4 6.0 6.1 6.0 5.9 4.5 5.3 5.0 4.4 5.0 4.9 4.9 5.0 4.9
6.5 6.5 6.4 6.2 6.2 6.1 6.0 6.3 6.1 6.2 6.2 4.7 5.0 5.0 4.9 4.8 4.6 4.9 4.9 5.0 5.2 5.1
6.0 5.7 6.0 6.2 6.1 6.2 6.0 6.0 5.7 5.2 5.7 5.0 4.9 4.8 4.6 4.9 5.0 4.9 5.0 4.8 4.9 5.2
5.6 5.8 6.2 5.8 5.7 5.8 5.5 5.5 5.0 4.8 5.1 4.3 4.8 4.9 5.1 4.9 4.7 4.8 4.7 5.1 5.1 4.9
5.4 5.2 5.0 5.0 5.1 4.9 5.1 5.0 5.0 5.2 5.1 5.2 5.5 5.5 5.0 5.0 5.1 5.1 5.1 5.1 5.1 5.1
Wind_Speed
9 8 9 11 9 11 12 12 13 11 9 8 9 9 9 7 4 6 6 7 4 3
7 9 10 11 9 7 7 8 11 11 10 10 10 9 9 7 3 6 4 5 5 4
9 10 7 7 9 9 8 11 12 12 11 11 10 9 7 6 8 4 5 4 4 3
5 5 6 7 7 9 10 11 12 12 12 12 12 10 8 8 7 7 6 5 3 5
6 7 6 8 8 10 10 9 10 10 11 12 11 9 10 8 5 5 5 6 5 5
5 6 6 7 8 8 11 11 11 12 12 11 11 11 8 7 4 4 5 5 5 4
3 6 8 8 10 10 11 13 13 13 13 12 11 10 8 8 6 2 2 4 1 2
8 8 9 11 12 11 10 11 14 15 13 12 10 7 7 6 5 2 4 3 2 2
11 12 11 13 13 13 13 13 13 14 13 10 7 13 12 7 5 5 5 2 2 3
11 12 12 13 14 12 14 14 14 13 12 11 10 13 11 12 3 2 1 2 1 3
12 11 11 12 12 13 11 13 11 10 9 7 6 10 9 7 3 4 1 1 1 2
12 11 10 9 11 10 12 11 8 6 8 6 5 12 11 6 4 2 1 1 3 3
10 10 9 9 9 7 8 9 6 6 6 7 6 9 6 5 2 1 1 2 2 7
10 10 10 8 6 7 7 6 6 7 5 5 4 4 0 1 2 2 0 2 3 3
Wind_Direction
215 196 199 193 191 190 189 188 168 173 168 159 157 149 150 137 147 138 133 138 132 131
186 188 198 191 186 189 172 162 160 158 150 148 153 149 146 138 161 133 118 125 138 124
199 200 179 163 169 160 148 154 153 147 145 147 148 144 137 130 118 132 117 116 131 109
164 150 140 149 148 144 143 150 158 154 151 148 143 137 129 122 132 130 130 115 165 161
151 147 154 149 145 144 146 150 153 145 139 132 124 116 116 108 91 104 140 134 197 188
155 141 148 140 136 137 139 132 126 119 116 109 106 99 97 106 138 164 131 162 200 205
101 124 125 126 117 124 129 124 118 114 111 110 105 110 124 130 147 138 110 85 33 309
94 99 105 110 107 111 108 105 109 105 101 100 102 112 110 108 102 141 83 68 8 331
88 92 95 96 93 99 98 96 99 98 100 99 102 117 117 106 86 58 39 359 351 325
84 89 95 100 98 103 98 97 89 87 92 90 97 101 90 76 64 160 132 88 14 336
88 88 94 97 110 108 113 108 107 108 103 100 107 109 112 147 148 88 68 91 259 314
113 110 103 113 100 108 105 100 97 119 116 120 124 167 165 132 102 114 8 319 344 303
86 90 87 89 83 86 98 90 114 126 117 168 171 148 137 136 143 65 334 318 312 320
86 94 96 86 90 92 97 113 98 89 86 90 104 43 207 247 167 221 197 339 311 275